TimeMST,TemperatureF,Dew PointF,Humidity,Sea Level PressureIn,VisibilityMPH,Wind Direction,Wind SpeedMPH,Gust SpeedMPH,PrecipitationIn,Events,Conditions,WindDirDegrees,DateUTC
12:53 AM,21.9,14.0,72,30.24,10.0,WSW,8.1,-,N/A,,Clear,250,2013-12-26 07:53:00
1:53 AM,19.9,12.9,74,30.23,10.0,West,9.2,-,N/A,,Clear,260,2013-12-26 08:53:00
2:53 AM,19.0,12.9,77,30.21,10.0,West,10.4,-,N/A,,Clear,260,2013-12-26 09:53:00
3:53 AM,21.0,14.0,74,30.22,10.0,West,6.9,-,N/A,,Clear,280,2013-12-26 10:53:00
4:53 AM,23.0,14.0,68,30.23,10.0,West,8.1,-,N/A,,Clear,270,2013-12-26 11:53:00
5:53 AM,25.0,14.0,63,30.25,10.0,WNW,13.8,18.4,N/A,,Clear,290,2013-12-26 12:53:00
6:53 AM,30.9,14.0,50,30.25,10.0,WNW,15.0,-,N/A,,Clear,290,2013-12-26 13:53:00
7:53 AM,39.0,15.1,38,30.25,10.0,NW,19.6,27.6,N/A,,Overcast,310,2013-12-26 14:53:00
8:53 AM,41.0,14.0,33,30.29,10.0,NW,13.8,26.5,N/A,,Clear,310,2013-12-26 15:53:00
9:53 AM,46.9,14.0,27,30.30,10.0,NW,17.3,-,N/A,,Clear,310,2013-12-26 16:53:00
10:53 AM,48.9,15.1,26,30.30,10.0,NW,19.6,27.6,N/A,,Clear,320,2013-12-26 17:53:00
11:53 AM,50.0,18.0,28,30.28,10.0,NW,18.4,27.6,N/A,,Clear,320,2013-12-26 18:53:00
12:53 PM,52.0,19.0,27,30.26,10.0,NNW,20.7,26.5,N/A,,Clear,330,2013-12-26 19:53:00
1:53 PM,53.1,21.0,29,30.25,10.0,NW,15.0,-,N/A,,Clear,320,2013-12-26 20:53:00
2:53 PM,52.0,21.0,30,30.27,10.0,NW,12.7,-,N/A,,Clear,320,2013-12-26 21:53:00
3:53 PM,48.9,21.0,33,30.30,10.0,NW,5.8,-,N/A,,Clear,320,2013-12-26 22:53:00
4:53 PM,42.1,21.0,43,30.31,10.0,WNW,3.5,-,N/A,,Clear,300,2013-12-26 23:53:00
5:53 PM,37.9,21.0,51,30.32,10.0,NW,5.8,-,N/A,,Clear,310,2013-12-27 00:53:00
6:53 PM,32.0,19.0,59,30.32,10.0,WNW,3.5,-,N/A,,Clear,290,2013-12-27 01:53:00
7:53 PM,32.0,19.0,59,30.31,10.0,West,6.9,-,N/A,,Clear,280,2013-12-27 02:53:00
8:53 PM,28.0,18.0,66,30.32,10.0,West,6.9,-,N/A,,Clear,270,2013-12-27 03:53:00
9:53 PM,28.0,18.0,66,30.30,10.0,West,5.8,-,N/A,,Clear,260,2013-12-27 04:53:00
10:53 PM,27.0,18.0,69,30.32,10.0,WSW,6.9,-,N/A,,Clear,250,2013-12-27 05:53:00
11:53 PM,24.1,18.0,77,30.31,10.0,WSW,6.9,-,N/A,,Clear,240,2013-12-27 06:53:00